Language selection

Features

My Weather Profile Weather Topics  | 

Rankin - southern half: Past 24 Hour Conditions

 

Moosonee Airport

01:00 PM EST 21 January 2020
Disclaimer

This table is a summary of hourly weather conditions for the past 24 hours.
Please note that these observations might not always be representative of weather conditions over their associated marine area.

Date / Time
(EST)
Wind(knots) Conditions Visibility(km) Pressure(kPa) Air tempC) Relative humidity(%) Dew pointC) Wind Chill
21 January 2020
13:00 W 11 Light Snow 16 101.4 -6 70 -11 -13
12:00 W 11 gust 17 Light Snow 16 101.4 -7 72 -11 -14
11:00 WSW 9 Light Snow 16 101.5 -7 76 -11 -14
10:00 WSW 9 Light Snow 16 101.5 -8 78 -11 -15
9:00 SW 7 Light Snow 16 101.5 -9 74 -12 -14
8:00 SW 10 Light Snow 16 101.5 -9 73 -13 -16
7:00 SW 9 Cloudy 16 101.5 -9 74 -13 -16
6:00 SW 12 Light Snow 16 101.5 -9 78 -13 -17
5:00 SW 9 gust 16 Light Snow 10 101.6 -10 84 -12 -17
4:00 SW 12 Light Snow 10 101.6 -10 82 -13 -19
3:00 WSW 15 gust 22 Light Snow 4 101.7 -10 74 -14 -20
2:00 SW 13 Cloudy 16 101.7 -11 68 -16 -20
1:00 SW 12 gust 17 Cloudy 16 101.8 -12 71 -16 -21
0:00 SSW 13 Cloudy 16 102.0 -14 75 -17 -23
20 January 2020
23:00 SW 8 Cloudy 16 102.2 -14 73 -18 -22
22:00 SW 9 Partly Cloudy 16 102.3 -15 73 -19 -23
21:00 WSW 10 Clear 16 102.4 -15 73 -19 -24
20:00 SW 8 Clear 16 102.5 -16 72 -20 -24
19:00 WSW 10 Clear 16 102.6 -15 68 -20 -24
18:00 WSW 9 Clear 16 102.5 -15 66 -20 -23
17:00 WSW 9 Clear 16 102.5 -14 63 -20 -22
16:00 W 13 Light Snow 16 102.5 -13 59 -20 -23
15:00 W 15 gust 20 Light Snow 10 102.5 -13 59 -20 -23
14:00 WNW 11 gust 17 Light Snow 10 102.5 -13 59 -20 -22
13:00 W 12 gust 20 Light Snow 2 102.5 -14 61 -20 -23

Zoom-in to make a selection

Map of Hudson - Hudson Bay marine weather areas Arviat Airport Baker Lake Airport Chesterfield Inlet Airport Coral Harbour Airport Rankin Inlet Airport Sanikiluaq Airport Whale Cove Airport Cape Dorset Airport Iqaluit Airport Wager Bay Kimmirut Airport Churchill Airport Fort Severn Airport Peawanuck Airport Moosonee Airport Eastmain Airport La Grande Rivière Airport Waskaganish Airport Wemindji Airport Akulivik Airport Inukjuak Airport Ivujivik Airport Kuujjuarapik Airport Puvirnituq Airport Umiujaq Airport Aupaluk Airport Kangiqsujuaq Airport Kangirsuk Airport Kangiqsualujjuaq Airport Kuujjuaq Airport Quaqtaq Airport Salluit Airport Tasiujaq Airport Cape Kakkiviak
Legend:
buoy Buoy
land station Land Station

Hudson - Hudson Bay Area

Another Region

What we are doing

Date modified: